Home > Weather > Qatif > Past weeks

Flag for Saudi Arabia Weather for the Past 2 Weeks in Qatif, Saudi Arabia

Now
88 °F

Clear.


Feels Like: 85 °F
Forecast: 73 / 103 °F
Wind: 5 mph from North

Location: King Fahd International Airport

Current Time: May 4, 2016 at 9:02:03 PM

Latest Report: May 4, 2016 at 8:00 PM


Visibility: 10 mi

Pressure: 29.74 "Hg

Humidity: 24%

Dew Point: 46 °F

Location of QatifLocation

Historic Weather in Qatif — Graph

°F

Qatif Temperature Yesterday

Maximum temperature yesterday: 108 °F (at 1:00 PM)
Minimum temperature yesterday: 75 °F (at 3:00 AM)
Average temperature yesterday: 90 °F

High & Low Weather Summary for the Past Weeks

 TemperatureHumidityPressure
High108 °F (May 3, 1:00 PM)78% (Apr 28, 5:00 AM)30.01 "Hg (Apr 28, 5:00 AM)
Low66 °F (Apr 20, 5:00 AM)6% (Apr 26, 3:00 PM)29.65 "Hg (Apr 24, 2:00 PM)
Average84 °F32%29.80 "Hg
* Reported Apr 19 8:00 PM — May 4 8:00 PM, Qatif, Weather by CustomWeather, © 2016

Note: Actual official high and low records may vary slightly from our data, if they occured in-between our weather recording intervals... More about our weather records

Advertising

Qatif Weather History for the Previous 24 Hours

Scroll right to see more
 ConditionsComfort  
Time TempWeatherWind HumidityBarometerVisibility
8:00 PM
Wed, May 4
88 °FClear.5 mph24%29.74 "Hg10 mi
7:00 PM91 °FClear.6 mph20%29.71 "Hg5 mi
6:00 PM93 °FClear.8 mph19%29.71 "Hg5 mi
5:00 PM99 °FSunny.16 mph13%29.68 "Hg10 mi
4:00 PM99 °FClear.17 mph13%29.71 "Hg5 mi
3:00 PM102 °FClear.18 mph11%29.71 "Hg5 mi
2:00 PM102 °FSunny.17 mph11%29.71 "Hg5 mi
1:00 PM102 °FClear.17 mph11%29.71 "Hg5 mi
12:00 PM104 °FClear.15 mph11%29.74 "Hg5 mi
11:00 AM102 °FClear.14 mph11%29.77 "Hg5 mi
10:00 AM99 °FSunny.14 mph14%29.77 "Hg10 mi
9:00 AM95 °FSunny.12 mph19%29.74 "Hg10 mi
8:00 AM90 °FSunny.9 mph24%29.74 "Hg10 mi
7:00 AM81 °FSunny.6 mph30%29.74 "Hg10 mi
6:00 AM81 °FSunny.7 mph30%29.71 "Hg10 mi
5:00 AM79 °FSunny.9 mph30%29.71 "Hg10 mi
4:00 AM79 °FClear.10 mph37%29.68 "Hg10 mi
3:00 AM81 °FClear.8 mph34%29.68 "Hg10 mi
2:00 AM81 °FClear.7 mph39%29.68 "Hg10 mi
1:00 AM79 °FClear.7 mph39%29.68 "Hg10 mi
12:00 AM82 °FClear.7 mph35%29.71 "Hg10 mi
11:00 PM
Tue, May 3
84 °FClear.5 mph33%29.71 "Hg10 mi
10:00 PM84 °FClear.5 mph33%29.71 "Hg10 mi
9:00 PM88 °FClear.5 mph29%29.71 "Hg10 mi
Weather by CustomWeather, © 2016

See weather overviewHow to use our weather pages